Imperial, NE

9:53 PM MST on January 17, 2018 (GMT -0700)
Imperial Municipal

Weather History for KIML - April, 2012

Change the Weather History Date:

Tuesday, April 3, 2012

  Actual Average Record
Temperature  
Mean Temperature 44 °F 45 °F  
Max Temperature 48 °F 59 °F 87 °F (1996)
Min Temperature 39 °F 30 °F 12 °F (2002)
Degree Days  
Heating Degree Days 21 20  
Month to date heating degree days 35 62  
Cooling Degree Days 0 0  
Month to date cooling degree days 0 0  
Year to date cooling degree days 1 0  
Moisture  
Dew Point 37 °F    
Average Humidity 77    
Maximum Humidity 92    
Minimum Humidity 61    
Precipitation  
Precipitation 0.46 in 0.04 in 1.16 in (1950)
Sea Level Pressure  
Sea Level Pressure 30.07 in    
Wind  
Wind Speed 17 mph (NNE)    
Max Wind Speed 44 mph    
Max Gust Speed 53 mph    
Visibility 9 miles    
Events Rain    
T = Trace of Precipitation, MM = Missing Value Source: NWS Daily Summary

Daily Weather History Graph

Daily Weather History Graph

Search for Another Location

Airport or City:

Trip Planner

Search our weather history database for the weather conditions in past years. The results will help you decide how hot, cold, wet, or windy it might be!

Date:

Astronomy

Apr. 03, 2012 Rise Set
Actual Time 6:26 AM MDT 7:13 PM MDT
Civil Twilight 5:58 AM MDT 7:41 PM MDT
Nautical Twilight 5:25 AM MDT 8:14 PM MDT
Astronomical Twilight 4:51 AM MDT 8:48 PM MDT
Moon 3:59 PM MDT (4/3) 4:16 AM MDT (4/3)
Length of Visible Light 13h 43m
Length of Day
12h 47m
Waxing Gibbous, 87% of the Moon is Illuminated
Apr 3
Waxing Gibbous
Apr 6
Full
Apr 13
Last Quarter
Apr 21
New
Apr 29
First Quarter

Hourly Weather History & Observations

Time (MDT) Temp. Windchill Dew Point Humidity Pressure Visibility Wind Dir Wind Speed Gust Speed Precip Events Conditions
12:53 AM 42.1 °F 33.1 °F 37.0 °F 82% 30.07 in 10.0 mi North 20.7 mph 29.9 mph N/A   Overcast
1:53 AM 42.1 °F 31.9 °F 36.0 °F 79% 30.01 in 10.0 mi North 26.5 mph 34.5 mph N/A   Overcast
2:53 AM 41.0 °F 31.4 °F 37.0 °F 86% 30.08 in 5.0 mi NNE 21.9 mph 29.9 mph 0.02 in Rain Rain
3:08 AM 41.0 °F 30.9 °F 37.4 °F 87% 30.07 in 3.0 mi NNE 24.2 mph 33.4 mph 0.05 in Rain Rain
3:53 AM 39.9 °F 30.8 °F 37.9 °F 93% 30.08 in 4.0 mi North 18.4 mph 26.5 mph 0.16 in Rain Rain
4:30 AM 39.2 °F 30.8 °F 37.4 °F 93% 30.08 in 4.0 mi North 15.0 mph - 0.10 in Rain Rain
4:53 AM 39.9 °F 32.1 °F 37.0 °F 89% 30.12 in 4.0 mi North 13.8 mph - 0.14 in Rain Rain
5:43 AM 39.2 °F 28.0 °F 37.4 °F 93% 30.04 in 5.0 mi North 26.5 mph 31.1 mph 0.10 in Rain Rain
5:53 AM 39.0 °F 25.6 °F 37.0 °F 93% 29.99 in 5.0 mi North 40.3 mph 47.2 mph 0.12 in Rain Rain
6:21 AM 39.2 °F 26.0 °F 37.4 °F 93% 29.96 in 10.0 mi NE 39.1 mph 52.9 mph 0.02 in Rain Light Rain
6:36 AM 39.2 °F 27.6 °F 35.6 °F 87% 30.01 in 10.0 mi NE 28.8 mph 44.9 mph 0.02 in   Partly Cloudy
6:53 AM 39.0 °F 27.0 °F 36.0 °F 89% 30.05 in 10.0 mi NE 31.1 mph 40.3 mph 0.02 in   Clear
7:19 AM 39.2 °F 28.3 °F 37.4 °F 93% 30.06 in 10.0 mi NNE 25.3 mph 29.9 mph N/A   Mostly Cloudy
7:33 AM 39.2 °F 29.6 °F 35.6 °F 87% 30.08 in 10.0 mi NNE 19.6 mph 29.9 mph N/A   Overcast
7:53 AM 39.9 °F 31.1 °F 36.0 °F 86% 30.12 in 10.0 mi NNE 17.3 mph 27.6 mph N/A   Overcast
8:53 AM 39.9 °F 30.2 °F 37.0 °F 89% 30.12 in 10.0 mi NNE 20.7 mph 28.8 mph N/A   Overcast
9:36 AM 41.0 °F 32.5 °F 35.6 °F 81% 30.11 in 10.0 mi NE 17.3 mph 25.3 mph N/A   Overcast
9:53 AM 41.0 °F 33.1 °F 36.0 °F 82% 30.15 in 10.0 mi NNE 15.0 mph 23.0 mph N/A   Overcast
10:53 AM 42.1 °F 33.9 °F 37.0 °F 82% 30.15 in 10.0 mi NE 17.3 mph 24.2 mph N/A   Overcast
11:53 AM 43.0 °F 35.1 °F 37.0 °F 80% 30.14 in 10.0 mi NNE 17.3 mph 26.5 mph N/A   Overcast
12:53 PM 44.1 °F 36.8 °F 37.0 °F 76% 30.13 in 10.0 mi NE 16.1 mph - N/A   Overcast
1:53 PM 46.0 °F 39.6 °F 37.0 °F 71% 30.11 in 10.0 mi NNE 15.0 mph 21.9 mph N/A   Overcast
2:53 PM 46.0 °F 39.0 °F 37.0 °F 71% 30.10 in 10.0 mi NNE 17.3 mph - N/A   Overcast
3:53 PM 46.9 °F - 37.9 °F 71% 30.08 in 10.0 mi NNE 16.1 mph - N/A   Overcast
4:53 PM 46.9 °F - 37.9 °F 71% 30.08 in 10.0 mi North 15.0 mph - N/A   Overcast
5:53 PM 46.9 °F - 37.9 °F 71% 30.07 in 10.0 mi NNE 19.6 mph 25.3 mph N/A   Overcast
6:53 PM 46.9 °F - 37.9 °F 71% 30.05 in 10.0 mi NNE 17.3 mph 25.3 mph N/A   Overcast
7:53 PM 46.9 °F - 39.0 °F 74% 30.05 in 10.0 mi NE 16.1 mph 23.0 mph N/A   Overcast
8:53 PM 48.0 °F - 37.0 °F 66% 30.06 in 10.0 mi NNE 9.2 mph - N/A   Overcast
9:53 PM 48.0 °F - 37.0 °F 66% 30.02 in 10.0 mi NNE 12.7 mph - N/A   Overcast
10:29 PM 48.2 °F - 35.6 °F 62% 29.99 in 10.0 mi NNE 12.7 mph - N/A   Overcast
10:44 PM 48.2 °F - 35.6 °F 62% 30.01 in 10.0 mi NE 8.1 mph - N/A   Overcast
10:53 PM 48.0 °F - 36.0 °F 63% 30.03 in 10.0 mi NE 6.9 mph - N/A   Overcast
11:53 PM 46.9 °F - 37.9 °F 71% 30.02 in 10.0 mi North 6.9 mph - N/A   Overcast